Location: Croisilles
(50.1998°N, 2.8793°E)
Time: 12:55:58
(UTC+00:00)

Cosmos 1844 - Pass Details

Date: 21 January 2021
Orbit: 821 x 869 km, 70.9° (Epoch: 27 February)

Event Time Altitude Azimuth Distance (km) Brightness Sun altitude
Rises 19:16:04 0° 222° (SW) 3,382 7.4 -27.1°
Reaches altitude 10° 19:18:32 10° 226° (SW) 2,459 6.6 -27.5°
Maximum altitude 19:24:05 57° 305° (NW) 999 4.2 -28.4°
Enters shadow 19:25:52 40° 0° (N) 1,235 4.5 -28.7°
